Location: Vale
(35.4830°N, 81.3830°W)
Time: 12:29:02
(UTC-04:00)

Amateur Radio Satellites - All Passes

Search period start: 28 May 2017 11:59
Search period end: 29 May 2017 11:59
Location: Vale, 35.4830°N, 81.3830°W

Satellite Date Start Highest point End Downlink Frequencies (MHz)
Time Altitude Azimuth
YUBILEINY 28 May 12:06:31 12:14:20 34° 74° (ENE) 12:22:04 435.215
EO-88 28 May 12:21:42 12:23:35 14° 292° (WNW) 12:25:28 145.990 - 145.960
NANOSAT C BR1 28 May 12:25:59 12:30:07 67° 75° (ENE) 12:34:16 145.865
POLYITAN 1 28 May 12:32:21 12:36:32 90° 308° (NW) 12:40:45 437.675
RS-15 28 May 12:32:24 12:44:29 76° 245° (WSW) 12:55:53 29.354- 29.394
DUCHIFAT 1 28 May 12:35:35 12:39:44 79° 75° (ENE) 12:43:54 145.980
QB50P2 28 May 12:41:11 12:45:20 63° 259° (WSW) 12:49:31 145.880/145.840
BUGSAT 1 28 May 12:46:40 12:50:04 27° 71° (ENE) 12:53:29 437.445
LO-87 28 May 12:57:05 13:00:22 36° 286° (WNW) 13:03:40 145.935 - 145.965
ESTCUBE 1 28 May 13:05:49 13:10:19 74° 284° (WNW) 13:14:46 437.505/2401.250
EO-79 28 May 13:18:28 13:21:54 25° 264° (W) 13:25:22 145.935-145.965
SPROUT 28 May 13:32:07 13:36:18 52° 100° (E) 13:40:29 437.525
Gurwin Techsat 1B 28 May 13:33:16 13:37:18 22° 67° (ENE) 13:41:20 435.225
Oscar 19 28 May 13:38:38 13:43:30 42° 72° (ENE) 13:48:23 437.125/150
BEESAT 3 28 May 13:39:50 13:42:01 14° 48° (NE) 13:44:11 437.485
AO-85 28 May 13:43:33 13:47:28 46° 58° (ENE) 13:51:38 145.980
VELOX 1 28 May 13:52:54 13:57:18 89° 103° (ESE) 14:01:41 145.980
50 SAT 28 May 13:55:57 13:59:14 46° 99° (E) 14:02:30 437.505
YUBILEINY 28 May 14:02:55 14:11:14 48° 271° (W) 14:19:31 435.215
UKube-1 28 May 14:10:28 14:14:13 29° 97° (E) 14:17:57 .
AO-7 28 May 14:12:51 14:17:26 16° 53° (NE) 14:22:01 .
DX 1 28 May 14:21:54 14:26:12 62° 101° (ESE) 14:30:29 434.975-435.025
BUGSAT 1 28 May 14:22:40 14:25:25 18° 265° (W) 14:28:10 437.445
O/OREOS (USA 219) 28 May 14:23:22 14:27:52 75° 69° (ENE) 14:32:19 437.305
ITAMSAT 1 28 May 14:47:03 14:49:51 15° 63° (ENE) 14:52:39 435.822/435.867
RS-15 28 May 14:49:23 14:54:39 14° 264° (W) 14:59:50 29.354- 29.394
BEESAT 2 28 May 15:00:34 15:04:20 35° 56° (NE) 15:08:02 435.950
SPROUT 28 May 15:10:08 15:11:43 12° 294° (WNW) 15:13:17 437.525
Gurwin Techsat 1B 28 May 15:11:59 15:16:56 40° 261° (W) 15:21:55 435.225
BEESAT 3 28 May 15:16:00 15:19:52 48° 245° (WSW) 15:23:40 437.485
Oscar 19 28 May 15:19:12 15:22:56 20° 266° (W) 15:26:41 437.125/150
AO-85 28 May 15:25:31 15:27:31 13° 250° (WSW) 15:29:33 145.980
ITUPSAT 1 28 May 15:35:07 15:38:45 21° 95° (E) 15:42:21 437.325
UKube-1 28 May 15:46:51 15:50:02 20° 292° (WNW) 15:53:11 .
AO-7 28 May 16:00:39 16:08:54 81° 71° (ENE) 16:17:14 .
DX 1 28 May 16:01:05 16:01:49 10° 296° (WNW) 16:02:32 434.975-435.025
BEESAT 28 May 16:06:25 16:11:03 47° 100° (E) 16:15:39 436.000
NO-84 28 May 16:08:43 16:12:22 53° 43° (NE) 16:15:42 435.350 FM
ITAMSAT 1 28 May 16:23:40 16:28:45 60° 259° (WSW) 16:33:53 435.822/435.867
BEESAT 2 28 May 16:39:14 16:41:46 16° 251° (WSW) 16:44:18 435.950
MOZHAYETS 4 28 May 17:07:07 17:11:44 65° 285° (WNW) 17:16:18
ITUPSAT 1 28 May 17:12:14 17:16:35 35° 290° (WNW) 17:20:55 437.325
DOVE 4 28 May 17:41:34 17:45:16 25° 71° (ENE) 17:48:50 437.250
KKS-1 28 May 17:44:37 17:48:48 40° 99° (E) 17:52:59 437.445
BEESAT 28 May 17:45:29 17:48:24 16° 294° (WNW) 17:51:19 436.000
NO-84 28 May 17:48:38 17:49:21 10° 241° (WSW) 17:50:03 435.350 FM
AO-7 28 May 17:57:12 18:02:23 18° 267° (W) 18:07:38 .
CUBESAT XI-V 28 May 17:58:52 18:03:31 77° 101° (ESE) 18:08:06 437.345
LilacSat-2 28 May 17:59:19 18:02:01 18° 70° (ENE) 18:04:43 437.200
STARS 28 May 18:09:29 18:13:25 31° 98° (E) 18:17:19 437.465
XW-2D 28 May 18:29:51 18:33:27 43° 75° (ENE) 18:37:06 145.860 - 145.880
CUTE-I 28 May 18:34:37 18:39:41 49° 72° (ENE) 18:44:48 437.470
XW-2B 28 May 18:37:45 18:41:27 53° 75° (ENE) 18:45:12 145.730 - 145.750
NUDT-PHONESAT 28 May 18:40:54 18:44:26 43° 74° (ENE) 18:48:00 437.300
XW-2F 28 May 18:48:37 18:52:23 74° 77° (ENE) 18:56:13 145.980 - 146.000
XW-2C 28 May 18:51:24 18:55:13 86° 78° (ENE) 18:59:03 145.795 - 145.815
KAITUO 1B 28 May 18:52:24 18:56:08 66° 76° (ENE) 18:59:54 145.475/437.950
PCSat 28 May 18:53:08 18:58:14 44° 111° (ESE) 19:03:23 145.827
HO-68 28 May 19:06:35 19:12:49 33° 65° (ENE) 19:19:05 435.675
Tancredo 1 28 May 19:16:48 19:19:40 37° 133° (SE) 19:22:32 437.200
DOVE 4 28 May 19:19:03 19:22:51 25° 263° (W) 19:26:31 437.250
KKS-1 28 May 19:22:18 19:25:00 16° 293° (WNW) 19:27:41 437.445
SEEDS 28 May 19:28:49 19:31:43 18° 69° (ENE) 19:34:37 437.485
LilacSat-2 28 May 19:32:54 19:36:05 25° 264° (W) 19:39:18 437.200
CUBEBUG 2 28 May 19:45:17 19:48:20 20° 69° (ENE) 19:51:26 437.445
STARS 28 May 19:46:19 19:49:30 20° 292° (WNW) 19:52:41 437.465
UWE-3 28 May 19:51:41 19:53:53 14° 66° (ENE) 19:56:06 435.000/436.395/437.385
XW-2A 28 May 20:08:26 20:11:46 79° 76° (ENE) 20:15:09 145.665 - 145.685
ISS 28 May 20:10:05 20:13:23 84° 316° (NW) 20:16:41 437.550
Oscar 11 28 May 20:16:10 20:17:07 11° 65° (ENE) 20:18:03 .
STRAND 1 28 May 20:16:16 20:20:57 35° 98° (E) 20:25:38 437.568
CUTE-I 28 May 20:16:31 20:19:57 17° 267° (W) 20:23:25 437.470
CUTE 1.7 + AOD 2 28 May 20:18:02 20:22:18 71° 259° (W) 20:26:35 437.475
AAUSAT CUBESAT 2 28 May 20:20:33 20:24:17 32° 72° (ENE) 20:28:01 437.432
PCSat 28 May 20:37:30 20:41:47 23° 307° (NW) 20:46:07 145.827
AO-73 28 May 20:42:42 20:46:16 27° 71° (ENE) 20:49:54 145.935
Tancredo 1 28 May 20:53:16 20:55:31 18° 329° (NNW) 20:57:46 437.200
HO-68 28 May 20:53:36 21:00:18 42° 261° (W) 21:07:04 435.675
ZACube-1 28 May 20:57:35 21:01:37 45° 74° (ENE) 21:05:44 437.345
SEEDS 28 May 21:03:20 21:07:07 32° 263° (W) 21:10:57 437.485
M-CUBED/EXP-1 PRIME 28 May 21:11:41 21:12:13 10° 98° (E) 21:12:46 437.505
CUBEBUG 2 28 May 21:21:14 21:24:45 27° 264° (W) 21:28:22 437.445
UWE-3 28 May 21:25:59 21:29:55 41° 262° (W) 21:33:59 435.000/436.395/437.385
Oscar 11 28 May 21:48:24 21:52:40 60° 259° (W) 21:56:59 .
ISS 28 May 21:48:49 21:50:19 12° 335° (NNW) 21:51:48 437.550
DELFI C3 28 May 21:53:01 21:56:39 35° 73° (ENE) 22:00:18 145.870
STRAND 1 28 May 21:55:50 21:59:54 24° 292° (WNW) 22:03:59 437.568
AAUSAT CUBESAT 2 28 May 21:57:04 21:59:46 17° 266° (W) 22:02:29 437.432
SO-50 28 May 22:17:05 22:21:40 70° 117° (ESE) 22:26:12 436.795
AO-73 28 May 22:19:17 22:22:27 21° 266° (W) 22:25:42 145.935
ZACube-1 28 May 22:36:27 22:38:08 12° 269° (W) 22:39:50 437.345
FO-29 28 May 22:40:23 22:46:31 35° 98° (E) 22:53:11 435.910
M-CUBED/EXP-1 PRIME 28 May 22:43:55 22:46:48 29° 292° (WNW) 22:49:39 437.505
PRISM 28 May 22:54:20 22:58:10 40° 99° (E) 23:01:58 437.425
EO-88 28 May 22:54:38 22:58:09 47° 261° (W) 23:01:43 145.990 - 145.960
TIGRISAT 28 May 22:59:00 23:03:18 37° 98° (E) 23:07:38 435.000
DELFI C3 28 May 23:29:25 23:31:31 14° 267° (W) 23:33:37 145.870
LO-87 28 May 23:29:43 23:33:08 47° 75° (ENE) 23:36:33 145.935 - 145.965
UNISAT 6 28 May 23:31:13 23:35:53 87° 283° (WNW) 23:40:35 437.425
SO-50 29 May 00:00:18 00:02:34 13° 314° (NW) 00:04:50 436.795
ESTCUBE 1 29 May 00:01:49 00:06:19 69° 76° (ENE) 00:10:51 437.505/2401.250
NANOSAT C BR1 29 May 00:14:46 00:16:55 14° 93° (E) 00:19:03 145.865
POLYITAN 1 29 May 00:20:58 00:23:58 18° 95° (E) 00:26:58 437.675
SPROUT 29 May 00:22:44 00:26:16 26° 71° (ENE) 00:29:48 437.525
DUCHIFAT 1 29 May 00:23:43 00:26:16 15° 94° (E) 00:28:49 145.980
FO-29 29 May 00:25:19 00:31:27 40° 290° (WNW) 00:38:11 435.910
50 SAT 29 May 00:27:21 00:28:26 11° 68° (ENE) 00:29:31 437.505
QB50P2 29 May 00:29:20 00:32:53 25° 96° (E) 00:36:26 145.880/145.840
PRISM 29 May 00:31:05 00:33:03 13° 293° (WNW) 00:35:01 437.425
TIGRISAT 29 May 00:36:25 00:39:42 19° 292° (WNW) 00:43:00 435.000
RS-15 29 May 00:42:07 00:50:35 23° 100° (E) 00:59:12 29.354- 29.394
AIST 2D 29 May 00:46:12 00:49:47 88° 283° (WNW) 00:53:19 435.315
VELOX 1 29 May 00:46:49 00:51:06 52° 74° (ENE) 00:55:23 145.980
UKube-1 29 May 01:02:41 01:05:33 18° 67° (ENE) 01:08:25 .
YUBILEINY 29 May 01:03:28 01:11:28 42° 87° (E) 01:19:29 435.215
EO-79 29 May 01:05:00 01:09:14 63° 100° (E) 01:13:28 145.935-145.965
DX 1 29 May 01:14:24 01:18:21 35° 72° (ENE) 01:22:19 434.975-435.025
Tancredo 1 29 May 01:44:45 01:46:32 14° 29° (NNE) 01:48:19 437.200
NANOSAT C BR1 29 May 01:48:46 01:52:46 41° 287° (WNW) 01:56:46 145.865
Oscar 19 29 May 01:54:11 01:57:42 18° 94° (E) 02:01:13 437.125/150
POLYITAN 1 29 May 01:55:59 01:59:46 31° 288° (WNW) 02:03:33 437.675
50 SAT 29 May 01:57:48 02:00:56 32° 261° (W) 02:04:05 437.505
DUCHIFAT 1 29 May 01:58:07 02:02:01 36° 287° (WNW) 02:05:54 145.980
SPROUT 29 May 01:58:53 02:02:06 21° 265° (W) 02:05:21 437.525
QB50P2 29 May 02:05:10 02:08:31 23° 290° (WNW) 02:11:53 145.880/145.840
BUGSAT 1 29 May 02:05:29 02:09:40 76° 103° (ESE) 02:13:50 437.445
VELOX 1 29 May 02:26:19 02:27:48 11° 268° (W) 02:29:17 145.980
UKube-1 29 May 02:37:21 02:41:17 34° 262° (W) 02:45:14 .
ITUPSAT 1 29 May 02:39:26 02:42:39 18° 66° (ENE) 02:45:52 437.325
ISS 29 May 02:40:41 02:43:35 28° 35° (NE) 02:46:29 437.550
JUGNU 29 May 02:46:19 02:49:11 14° 170° (S) 02:52:04 437.505
RS-15 29 May 02:49:25 03:01:30 85° 299° (WNW) 03:13:58 29.354- 29.394
DX 1 29 May 02:51:49 02:54:36 17° 266° (W) 02:57:24 434.975-435.025
O/OREOS (USA 219) 29 May 02:56:02 02:57:59 13° 98° (E) 02:59:56 437.305
YUBILEINY 29 May 03:00:21 03:08:12 37° 285° (WNW) 03:16:11 435.215
BEESAT 29 May 03:09:47 03:14:10 38° 72° (ENE) 03:18:35 436.000
Tancredo 1 29 May 03:19:31 03:22:31 57° 225° (SW) 03:25:31 437.200
Gurwin Techsat 1B 29 May 03:30:48 03:36:08 80° 284° (WNW) 03:41:25 435.225
Oscar 19 29 May 03:32:19 03:37:11 44° 289° (WNW) 03:42:01 437.125/150
PCSat 29 May 03:44:33 03:48:34 21° 51° (NE) 03:52:34 145.827
AO-85 29 May 03:55:30 03:59:14 30° 114° (ESE) 04:02:49 145.980
MOZHAYETS 4 29 May 04:05:27 04:10:03 83° 76° (ENE) 04:14:41
AO-7 29 May 04:06:18 04:13:34 32° 98° (E) 04:20:48 .
ITUPSAT 1 29 May 04:15:38 04:20:07 41° 261° (W) 04:24:39 437.325
ISS 29 May 04:17:19 04:19:59 23° 230° (SW) 04:22:37 437.550
O/OREOS (USA 219) 29 May 04:32:24 04:36:52 51° 293° (WNW) 04:41:21 437.305
JUGNU 29 May 04:33:41 04:37:26 17° 180° (S) 04:41:12 437.505
ITAMSAT 1 29 May 04:39:25 04:44:35 61° 102° (ESE) 04:49:45 435.822/435.867
KKS-1 29 May 04:39:57 04:43:37 26° 70° (ENE) 04:47:18 437.445
BEESAT 29 May 04:48:46 04:52:02 18° 266° (W) 04:55:20 436.000
BEESAT 2 29 May 04:50:58 04:52:37 12° 108° (ESE) 04:54:17 435.950
CUBESAT XI-V 29 May 04:58:44 05:03:17 52° 74° (ENE) 05:07:52 437.345
BEESAT 3 29 May 05:02:23 05:06:14 55° 116° (ESE) 05:10:08 437.485
STARS 29 May 05:03:43 05:06:51 20° 68° (ENE) 05:10:00 437.465
RS-15 29 May 05:06:09 05:16:03 27° 324° (NW) 05:26:06 29.354- 29.394
SRMSAT 29 May 05:19:20 05:22:11 14° 169° (S) 05:25:02 437.500
PCSat 29 May 05:27:00 05:32:15 52° 249° (WSW) 05:37:29 145.827
AO-85 29 May 05:36:29 05:39:37 20° 308° (NW) 05:42:39 145.980
AO-7 29 May 05:58:29 06:06:28 51° 294° (WNW) 06:14:26 .
KKS-1 29 May 06:16:32 06:20:05 23° 264° (W) 06:23:39 437.445
ITAMSAT 1 29 May 06:20:39 06:23:29 15° 297° (WNW) 06:26:19 435.822/435.867
JUGNU 29 May 06:22:48 06:25:42 14° 190° (S) 06:28:36 437.505
BEESAT 2 29 May 06:26:08 06:29:55 44° 303° (WNW) 06:33:48 435.950
XW-2C 29 May 06:29:14 06:30:23 11° 92° (E) 06:31:30 145.795 - 145.815
CUBESAT XI-V 29 May 06:38:41 06:40:54 13° 268° (W) 06:43:08 437.345
STARS 29 May 06:39:06 06:42:57 31° 262° (W) 06:46:50 437.465
BEESAT 3 29 May 06:42:19 06:44:08 13° 313° (NW) 06:45:57 437.485
SO-50 29 May 06:51:33 06:55:24 27° 52° (NE) 06:59:14 436.795
CUTE-I 29 May 06:55:08 06:59:29 25° 96° (E) 07:03:50 437.470
SRMSAT 29 May 07:06:47 07:10:36 17° 179° (S) 07:14:25 437.500
LilacSat-2 29 May 07:08:24 07:12:03 39° 98° (E) 07:15:40 437.200
DOVE 4 29 May 07:19:25 07:23:38 78° 281° (WNW) 07:28:00 437.250
NO-84 29 May 07:22:28 07:26:16 29° 125° (SE) 07:30:05 435.350 FM
RS-15 29 May 07:29:06 07:35:02 14° 360° (N) 07:40:55 29.354- 29.394
STRAND 1 29 May 07:29:12 07:33:49 37° 71° (ENE) 07:38:29 437.568
XW-2D 29 May 07:39:04 07:42:55 79° 284° (WNW) 07:46:44 145.860 - 145.880
XW-2B 29 May 07:47:08 07:50:57 63° 283° (WNW) 07:54:43 145.730 - 145.750
NUDT-PHONESAT 29 May 07:47:42 07:51:29 83° 281° (W) 07:55:14 437.300
M-CUBED/EXP-1 PRIME 29 May 07:54:12 07:55:55 12° 63° (ENE) 07:57:36 437.505
XW-2F 29 May 07:57:44 08:01:26 46° 285° (WNW) 08:05:05 145.980 - 146.000
KAITUO 1B 29 May 08:00:23 08:04:06 53° 285° (WNW) 08:07:46 145.475/437.950
XW-2C 29 May 08:01:07 08:04:44 40° 286° (WNW) 08:08:19 145.795 - 145.815
CUTE 1.7 + AOD 2 29 May 08:06:26 08:09:54 24° 95° (E) 08:13:20 437.475
HO-68 29 May 08:24:09 08:31:01 46° 100° (E) 08:37:50 435.675
SO-50 29 May 08:31:55 08:35:47 28° 248° (WSW) 08:39:38 436.795
CUTE-I 29 May 08:34:44 08:39:32 35° 290° (WNW) 08:44:20 437.470
LilacSat-2 29 May 08:44:19 08:45:56 12° 293° (WNW) 08:47:30 437.200
SEEDS 29 May 08:49:35 08:53:40 49° 99° (E) 08:57:42 437.485
ZACube-1 29 May 08:50:32 08:52:26 12° 92° (E) 08:54:19 437.345
SRMSAT 29 May 08:55:56 08:59:01 14° 190° (S) 09:02:06 437.500
NO-84 29 May 08:59:47 09:03:49 34° 320° (NW) 09:07:47 435.350 FM
XW-2A 29 May 09:05:38 09:09:02 60° 284° (WNW) 09:12:26 145.665 - 145.685
STRAND 1 29 May 09:09:09 09:13:02 22° 265° (W) 09:16:58 437.568
CUBEBUG 2 29 May 09:13:33 09:18:12 74° 101° (E) 09:22:56 437.445
UWE-3 29 May 09:17:49 09:22:18 47° 99° (E) 09:26:48 435.000/436.395/437.385
M-CUBED/EXP-1 PRIME 29 May 09:25:56 09:30:02 48° 255° (WSW) 09:33:52 437.505
Oscar 11 29 May 09:38:50 09:42:40 30° 97° (E) 09:46:27 .
AAUSAT CUBESAT 2 29 May 09:40:20 09:44:28 87° 283° (WNW) 09:48:34 437.432
PRISM 29 May 09:41:09 09:44:10 20° 69° (ENE) 09:47:12 437.425
CUTE 1.7 + AOD 2 29 May 09:42:14 09:45:36 23° 290° (WNW) 09:48:58 437.475
RS-15 29 May 09:44:05 09:54:00 27° 36° (NE) 10:03:31 29.354- 29.394
TIGRISAT 29 May 09:55:28 09:58:40 21° 69° (ENE) 10:01:56 435.000
AO-73 29 May 10:08:33 10:13:09 90° 33° (NNE) 10:17:43 145.935
HO-68 29 May 10:12:19 10:18:26 31° 296° (WNW) 10:24:32 435.675
ZACube-1 29 May 10:24:29 10:28:57 53° 285° (WNW) 10:33:24 437.345
UNISAT 6 29 May 10:26:58 10:31:08 54° 74° (ENE) 10:35:23 437.425
EO-88 29 May 10:27:09 10:29:36 17° 95° (E) 10:32:02 145.990 - 145.960
SEEDS 29 May 10:27:19 10:28:52 12° 294° (WNW) 10:30:24 437.485
FO-29 29 May 10:35:04 10:40:11 68° 75° (ENE) 10:45:29 435.910
CUBEBUG 2 29 May 10:53:37 10:54:12 10° 296° (WNW) 10:54:46 437.445
UWE-3 29 May 10:55:40 10:58:20 15° 293° (WNW) 11:01:00 435.000/436.395/437.385
DELFI C3 29 May 11:07:08 11:11:04 89° 280° (W) 11:14:58 145.870
Oscar 11 29 May 11:15:23 11:18:34 20° 291° (WNW) 11:21:43 .
PRISM 29 May 11:15:44 11:19:15 27° 263° (W) 11:22:47 437.425
AIST 2D 29 May 11:18:13 11:20:47 19° 71° (ENE) 11:23:23 435.315
YUBILEINY 29 May 11:18:39 11:24:02 17° 66° (ENE) 11:29:23 435.215
QB50P2 29 May 11:20:22 11:22:24 13° 66° (ENE) 11:24:25 145.880/145.840
TIGRISAT 29 May 11:31:31 11:35:10 27° 264° (W) 11:38:53 435.000
